[[{"header":{"parameterUnit":"m.s-1","parameterCategory":1,"la1":30.2991,"la2":30.254,"lo1":-89.0895,"lo2":-89.0444,"dx":0.0017,"dy":0.0017,"nx":28,"ny":28,"refTime":"2022-11-12T09:00:00:Z","depth":0,"parameterNumber":2,"parameterNumberName":"U-component_of_WINDS"},"data":[0,0,0,0,0,0,0,0,0,0,0,0,0,0,0,0,0,0,0,0,0,0,0,0,0,0,0,0,0,0,0,0,0,0,0,0,0,0,0,0,0,0,0,0,0,0,0,0,0,0,0,0,0,0,0,0,0,0,2.7471,2.7471,0,2.7526,2.7527,2.7527,2.7437,2.7434,2.7431,2.7428,2.7487,2.7491,2.7495,0,0,0,0,0,0,0,0,0,0,0,0,0,2.7288,2.7291,2.747,2.7471,2.7472,2.7526,2.7527,2.7528,2.7438,2.7434,2.743,2.7427,2.7485,2.749,2.7496,0,0,0,0,0,0,0,0,0,0,0,0,0,2.7358,2.7293,2.747,2.7434,2.7431,2.7526,2.7527,2.7528,2.7439,2.7434,2.7429,2.7425,2.7483,2.749,2.7497,2.763,0,0,2.7517,2.752,0,0,0,0,0,0,0,0,2.7354,2.7364,2.7438,2.7436,2.7433,2.747,2.7484,2.7562,2.744,2.7436,2.7428,2.7423,2.7485,2.7491,2.7512,2.7633,2.7636,2.7517,2.7521,2.7524,2.7526,0,0,0,0,0,0,0,2.7349,2.7362,2.7492,2.744,2.7437,2.7415,2.742,2.7498,2.7486,2.7436,2.7429,2.7437,2.7483,2.7506,2.7513,2.7636,2.7517,2.7523,2.7527,2.753,2.787,2.7875,0,0,0,0,0,0,2.7349,2.7358,2.7491,2.7494,2.7381,2.7422,2.7427,2.7463,2.7485,2.7483,2.7441,2.7433,2.7497,2.7505,2.7514,2.7672,2.7524,2.753,2.7534,2.7865,2.7871,2.7877,0,0,0,0,0,0,2.7345,2.7361,2.7488,2.7424,2.7439,2.743,2.7471,2.7467,2.7489,2.7489,2.7486,2.7467,2.7493,2.7505,2.7602,2.7673,2.7533,2.754,2.7859,2.7867,2.7874,2.7989,0,0,0,0,0,0,2.734,2.736,2.7411,2.7426,2.7443,2.7575,2.7475,2.7471,2.7501,2.7491,2.7512,2.7511,2.7491,2.7593,2.7609,2.768,2.7545,2.7853,2.7863,2.7872,2.7979,2.8,2.8018,0,0,0,0,0,2.7334,2.7442,2.7414,2.7431,2.7506,2.758,2.7589,2.7563,2.7507,2.7558,2.7557,2.751,2.7663,2.7603,2.7621,2.7695,2.7848,2.786,2.7871,2.7971,2.7996,2.8017,0,0,0,0,0,0,2.7435,2.7443,2.7412,2.7528,2.7554,2.7564,2.7627,2.759,2.7633,2.7621,2.7587,2.7593,2.7697,2.7706,2.7639,2.7825,2.7746,2.7762,2.7816,2.784,2.7859,2.7855,2.755,0,0,0,0,0,2.7471,2.753,2.7534,2.7636,2.765,2.7637,2.7668,2.7646,2.7671,2.7682,2.7688,2.7715,2.7769,2.7805,2.7854,2.798,2.7983,2.804,2.8059,2.8075,2.8088,2.8155,2.818,2.7914,2.7914,2.7914,0,0,2.7546,2.7557,2.7597,2.7656,2.7673,2.7736,2.7647,2.7716,2.7762,2.7692,2.7784,2.779,2.7818,2.793,2.798,2.794,2.8163,2.8089,2.8102,2.8107,2.817,2.8195,2.8217,2.7922,2.792,2.7919,0,0,2.7713,2.7728,2.7814,2.7834,2.7861,2.7851,2.7872,2.7888,2.7889,2.7981,2.793,2.7984,2.8078,2.8099,2.8123,2.8299,2.8258,2.8316,2.8417,2.8483,2.8504,2.8522,2.8585,2.8608,2.833,2.833,2.833,0,2.7803,2.7894,2.7864,2.7937,2.7965,2.7904,2.7991,2.8011,2.8054,2.8075,2.8029,2.8145,2.816,2.8276,2.8319,2.834,2.8363,2.8314,2.8503,2.8521,2.8538,2.8598,2.8622,2.8337,2.8336,2.8336,2.8335,0,2.8003,2.8067,2.8134,2.8175,2.8211,2.8291,2.8273,2.8312,2.8287,2.8283,2.8377,2.8392,2.8443,2.8469,2.8445,2.8583,2.8557,2.8509,2.8428,2.8571,2.8626,2.8649,2.8347,2.8345,2.8343,2.8341,0,0,2.8236,2.826,2.8285,2.8303,2.8328,2.8378,2.8455,2.8505,2.854,2.8571,2.8635,2.8716,2.8671,2.8697,2.8675,2.8733,2.8872,2.8677,2.8677,2.8713,2.9024,2.9061,2.9087,2.8845,2.8849,2.8852,2.9022,0,2.8402,2.8535,2.851,2.864,2.8699,2.8643,2.871,2.8733,2.8732,2.8782,2.8779,2.8837,2.8773,2.8789,2.8844,2.8844,2.8934,2.8831,2.8904,2.8907,2.8899,2.9116,2.9155,2.9314,2.9043,2.9047,2.905,0,2.8615,2.8654,2.879,2.8806,2.8829,2.8891,2.8934,2.8983,2.9008,2.9002,2.9033,2.9,2.9077,2.8996,2.9102,2.9033,2.9062,2.9066,2.9072,2.9077,2.8987,2.9128,2.9364,2.9388,2.9083,2.9081,2.9078,0,2.8771,2.8857,2.895,2.8967,2.8988,2.9033,2.9044,2.9064,2.9096,2.9134,2.9154,2.9202,2.9228,2.9265,2.9246,2.9189,2.9357,2.9274,2.9354,2.9355,2.9392,2.939,2.9636,2.9411,2.9411,2.941,2.941,0,2.896,2.9045,2.902,2.9077,2.9171,2.9141,2.9235,2.924,2.9259,2.9316,2.927,2.9324,2.9296,2.9349,2.9334,2.9425,2.9437,2.9435,2.943,2.9439,2.9439,2.9457,2.9445,2.9416,2.9415,2.9414,2.9413,0,2.915,2.9137,2.9233,2.9246,2.9251,2.932,2.933,2.9383,2.9378,2.945,2.9466,2.9457,2.9517,2.9502,2.9567,2.9557,2.9671,2.9652,2.9663,2.9658,2.9739,2.9732,3.0006,3.004,2.9793,2.9795,2.9797,0,2.9271,2.9335,2.9354,2.9389,2.9403,2.946,2.9492,2.9465,2.9501,2.9535,2.9584,2.9639,2.9682,2.978,2.978,2.983,2.9812,2.9904,2.9819,2.9826,2.9813,2.9809,2.9816,2.9921,2.9924,2.9926,2.9928,0,2.9488,2.9478,2.9525,2.9571,2.9611,2.9645,2.9676,2.9707,2.9683,2.9725,2.9785,2.9818,2.9885,2.994,2.9986,2.9997,2.996,2.9955,2.9976,2.9986,2.9989,2.9988,2.9709,2.9949,2.9947,2.9945,2.9944,2.9943,2.9647,2.9701,2.9723,2.9778,2.9798,2.9828,2.9878,2.9879,2.9929,2.998,2.9962,3.0031,3.0054,3.0111,3.0129,3.0182,3.0147,3.0178,3.0186,3.0194,3.0204,2.9981,3.0191,3.019,3.019,3.0189,3.0189,0,2.9861,2.9872,2.9923,2.9967,3.001,2.997,3.0002,3.0041,3.0102,3.0127,3.017,3.0239,3.0293,3.0297,3.0348,3.039,3.0374,3.0404,3.0401,3.0404,3.0233,3.0209,3.0417,3.0417,3.0416,3.0416,3.0416,3.0416,2.9977,3.0067,3.006,3.016,3.017,3.0237,3.0259,3.0286,3.0306,3.0385,3.0429,3.0432,3.0449,3.05,3.0548,3.0548,3.0569,3.0606,3.0599,3.0439,3.0416,3.0395,3.0372,3.0611,3.0611,3.0766,3.0768,3.0769]},{"header":{"parameterUnit":"m.s-1","parameterCategory":1,"la1":30.2991,"la2":30.254,"lo1":-89.0895,"lo2":-89.0444,"dx":0.0017,"dy":0.0017,"nx":28,"ny":28,"refTime":"2022-11-12T09:00:00:Z","depth":0,"parameterNumber":3,"parameterNumberName":"V-component_of_WINDS"},"data":[0,0,0,0,0,0,0,0,0,0,0,0,0,0,0,0,0,0,0,0,0,0,0,0,0,0,0,0,0,0,0,0,0,0,0,0,0,0,0,0,0,0,0,0,0,0,0,0,0,0,0,0,0,0,0,0,0,0,2.1136,2.1137,0,2.1222,2.1223,2.1224,2.1203,2.1201,2.1199,2.1198,2.1286,2.129,2.1294,0,0,0,0,0,0,0,0,0,0,0,0,0,2.0952,2.0955,2.1136,2.1137,2.1138,2.1222,2.1223,2.1224,2.1203,2.1201,2.1199,2.1197,2.1285,2.129,2.1294,0,0,0,0,0,0,0,0,0,0,0,0,0,2.1034,2.0956,2.1136,2.1137,2.1138,2.1222,2.1223,2.1225,2.1203,2.1201,2.1198,2.1196,2.1284,2.1289,2.1295,2.1382,0,0,2.1313,2.1316,0,0,0,0,0,0,0,0,2.1029,2.1041,2.1136,2.1137,2.1139,2.1199,2.1191,2.1278,2.1204,2.1179,2.1198,2.1195,2.1259,2.1267,2.1289,2.1386,2.139,2.1314,2.1317,2.132,2.1321,0,0,0,0,0,0,0,2.1024,2.1037,2.117,2.1137,2.1139,2.1134,2.1143,2.1207,2.1232,2.1181,2.1179,2.119,2.126,2.1283,2.1291,2.1391,2.1313,2.1319,2.1322,2.1325,2.1563,2.1566,0,0,0,0,0,0,2.1017,2.1032,2.1167,2.1173,2.1077,2.1139,2.1149,2.1182,2.1231,2.1236,2.1192,2.1189,2.1274,2.1284,2.1294,2.1398,2.132,2.1325,2.1329,2.1561,2.1564,2.1567,0,0,0,0,0,0,2.1013,2.1029,2.1164,2.1102,2.1119,2.1145,2.1182,2.1185,2.1209,2.124,2.1244,2.1212,2.1273,2.1286,2.136,2.1401,2.1328,2.1333,2.1557,2.1562,2.1566,2.1609,0,0,0,0,0,0,2.1008,2.1028,2.1062,2.1103,2.1122,2.1229,2.1185,2.1189,2.1219,2.1215,2.1259,2.1264,2.1272,2.1351,2.1366,2.1408,2.1338,2.1554,2.1559,2.1564,2.1604,2.1614,2.1623,0,0,0,0,0,2.1001,2.1071,2.1063,2.108,2.1165,2.1231,2.1242,2.125,2.1223,2.1256,2.1276,2.1263,2.1394,2.1359,2.1375,2.142,2.1551,2.1558,2.1564,2.16,2.1612,2.1622,0,0,0,0,0,0,2.1034,2.1076,2.1069,2.1153,2.1189,2.1228,2.1271,2.1262,2.1307,2.1301,2.1308,2.1318,2.1394,2.1415,2.1375,2.1506,2.1469,2.1479,2.149,2.1502,2.1512,2.1505,2.1343,0,0,0,0,0,2.105,2.1101,2.1135,2.1207,2.1225,2.1245,2.1274,2.1276,2.1313,2.1328,2.1354,2.139,2.1439,2.1472,2.1519,2.1606,2.1615,2.1645,2.1654,2.1662,2.167,2.1717,2.173,2.1588,2.1588,2.1588,0,0,2.1086,2.1115,2.1147,2.1214,2.1242,2.1294,2.1258,2.1314,2.1353,2.1337,2.1409,2.1429,2.147,2.1551,2.1588,2.157,2.1711,2.167,2.1676,2.168,2.1725,2.1738,2.175,2.1592,2.1591,2.1591,0,0,2.1177,2.1205,2.1267,2.1295,2.1338,2.135,2.1365,2.1405,2.1417,2.149,2.1479,2.1524,2.1609,2.1639,2.1665,2.1766,2.1756,2.1781,2.1831,2.1876,2.1887,2.1897,2.1933,2.1946,2.179,2.179,2.179,0,2.1216,2.1294,2.13,2.1357,2.1387,2.1374,2.1437,2.1464,2.152,2.1541,2.152,2.1626,2.1653,2.174,2.1765,2.1786,2.1803,2.1777,2.1885,2.1895,2.1905,2.1939,2.1952,2.1793,2.1792,2.1792,2.1792,0,2.1339,2.1394,2.1439,2.1492,2.1527,2.1587,2.1601,2.1635,2.1634,2.1649,2.1722,2.1754,2.1807,2.1827,2.1827,2.1915,2.1902,2.1883,2.1846,2.1921,2.1953,2.1966,2.1797,2.1796,2.1795,2.1794,0,0,2.1454,2.151,2.1526,2.155,2.1595,2.1637,2.1696,2.1748,2.1777,2.1815,2.1864,2.1936,2.1919,2.1948,2.1951,2.1991,2.2069,2.1967,2.1968,2.1985,2.2166,2.218,2.2195,2.2062,2.2064,2.2066,2.2163,0,2.1549,2.1653,2.1659,2.1753,2.1803,2.1791,2.1843,2.1876,2.1891,2.1935,2.1951,2.2002,2.1975,2.1993,2.2032,2.2051,2.2105,2.2044,2.2107,2.211,2.2097,2.2212,2.2227,2.2317,2.2175,2.2177,2.2179,0,2.1674,2.1716,2.1815,2.1852,2.1874,2.192,2.1967,2.2009,2.2046,2.2054,2.2087,2.2084,2.2144,2.2104,2.2186,2.2145,2.2171,2.2184,2.2187,2.2194,2.2149,2.2221,2.2346,2.2359,2.2199,2.2197,2.2196,0,2.1748,2.1829,2.1898,2.1919,2.1965,2.1997,2.2017,2.2052,2.2082,2.2123,2.2143,2.2191,2.2217,2.2254,2.2264,2.2234,2.2346,2.2307,2.2354,2.2354,2.2378,2.2376,2.2508,2.2395,2.2395,2.2394,2.2394,0,2.1853,2.1914,2.1932,2.1974,2.2042,2.2048,2.2115,2.2133,2.2164,2.221,2.2202,2.2245,2.2256,2.2301,2.2308,2.2375,2.2387,2.2395,2.2396,2.2396,2.2395,2.2413,2.2407,2.2398,2.2397,2.2397,2.2396,0,2.1947,2.1961,2.2036,2.2072,2.2083,2.2131,2.2162,2.2203,2.2217,2.2275,2.2289,2.231,2.2362,2.2375,2.2438,2.2443,2.2522,2.2518,2.251,2.2509,2.2555,2.2551,2.2704,2.2724,2.2597,2.2599,2.26,0,2.2013,2.206,2.2101,2.2131,2.2153,2.2201,2.2232,2.224,2.2272,2.2317,2.2352,2.2404,2.2445,2.2529,2.255,2.2598,2.2595,2.2645,2.2602,2.2599,2.2595,2.2592,2.2597,2.2653,2.2654,2.2656,2.2656,0,2.2129,2.2134,2.2178,2.2225,2.2262,2.2299,2.2335,2.236,2.2373,2.2409,2.2462,2.2495,2.2558,2.2609,2.2657,2.2678,2.2669,2.267,2.2683,2.2683,2.2676,2.268,2.2532,2.2666,2.2665,2.2665,2.2664,2.2664,2.2211,2.2252,2.2287,2.2336,2.2364,2.2397,2.2437,2.2455,2.25,2.2552,2.2554,2.2612,2.2647,2.271,2.2733,2.2778,2.2763,2.2783,2.2787,2.2792,2.2796,2.2669,2.2787,2.2787,2.2787,2.2786,2.2786,0,2.2327,2.2349,2.2394,2.2444,2.2483,2.2471,2.251,2.2543,2.2594,2.2627,2.2668,2.2729,2.2778,2.2802,2.2851,2.2882,2.288,2.2895,2.2893,2.2897,2.2807,2.2791,2.2896,2.2896,2.2896,2.2896,2.2896,2.2896,2.2392,2.2459,2.2468,2.2548,2.257,2.2626,2.2649,2.268,2.2706,2.2774,2.2815,2.2831,2.286,2.2911,2.2955,2.2961,2.2979,2.2996,2.3,2.2915,2.2904,2.2893,2.2878,2.3,2.3,2.3087,2.3088,2.3088]}]]